Other Public Products
Issued by NWS Grand Forks, ND

Home | Current Version | Previous Version | Graphics & Text | Print | Product List | Glossary On
Versions: 1 2 3 4 5 6 7 8 9 10 11 12 13 14 15 16 17 18 19 20 21 22 23 24 25 26 27 28 29 30 31 32 33 34 35 36 37 38 39 40 41 42 43 44 45 46 47 48 49 50
547
FPUS83 KFGF 232031
OPUFGF
PRAIRIE TO PINES WEATHER ROUNDUP
NATIONAL WEATHER SERVICE EASTERN NORTH DAKOTA/GRAND FORKS ND
300 PM CDT SAT JUL 23 2016

 **SATELLITE DATA USED TO AUGMENT SKY COVER AT AUTOMATED STATIONS**
 *****  WEATHER ACROSS EASTERN NORTH DAKOTA  *****

CITY           SKY/WX    TMP DP  RH WIND       PRES   REMARKS
GRAND FORKS    CLOUDY    71  66  84 SE16      29.72R
GRAND FORKS AF PTSUNNY   72  66  83 S14G22    29.74R
GRAND CITY NWS   N/A     68 N/A N/A E12         N/A
BUXTON           N/A     74  72  92 E7          N/A
DEVILS LAKE    CLOUDY    73  67  81 CALM      29.77R
FARGO          CLOUDY    81  69  67 SE16G25   29.72F
WAHPETON ARPT  CLOUDY    81  66  61 SE15G21   29.74F
$$

 *****  WEATHER ACROSS CENTRAL AND WESTERN NORTH DAKOTA  *****

CITY           SKY/WX    TMP DP  RH WIND       PRES   REMARKS
JAMESTOWN      CLOUDY    77  69  76 S8        29.76R
BISMARCK       MOSUNNY   81  66  60 NW15G24   29.80R
MINOT          MOSUNNY   84  62  47 W17G24    29.76F
MINOT AFB      SUNNY     79  62  55 W12G23    29.75F
GARRISON         N/A     79  64  60 NW15G23   29.80F
WILLISTON      SUNNY     82  49  31 W28G36    29.82F
DICKINSON      SUNNY     80  45  28 NW17G30   29.87F
HETTINGER      SUNNY     85  44  23 NW22G36   29.91S
$$

 *****  OTHER OBSERVATIONS NORTHEAST NORTH DAKOTA  *****

CITY           SKY/WX    TMP DP  RH WIND       PRES   REMARKS
WALHALLA       FAIR      72  68  88 CALM      29.75S
LANGDON        MOCLDY    77  68  73 CALM      29.77F
CAVALIER       FAIR      75  66  73 SE3       29.74R
GRAFTON        FAIR      73  70  88 NE6       29.73F
CANDO          CLOUDY    73  68  83 SE3       29.78F
FORT TOTTEN      N/A     77  68  72 S5        29.95S
ROLLA            N/A     73  66  78 SW7       29.77S
RUGBY          NOT AVBL
 ***** THE ABOVE OBSERVATIONS ARE NON NWS ARE NOT QUALITY
        CONTROLLED AND MAY MIS-REPORT RAIN FOR SNOW...
$$

 *****  OTHER OBSERVATIONS SOUTHEAST NORTH DAKOTA *****

CITY           SKY/WX    TMP DP  RH WIND       PRES   REMARKS
COOPERSTOWN    NOT AVBL
VALLEY CITY    FAIR      79  72  78 SE13      29.77F
OAKES            N/A    N/A N/A N/A MISG        N/A
GWINNER        FAIR      82  73  74 E6        29.74F
SHEYENNE NWR     N/A     81  72  73 SE15      29.95S
BUFFALO          N/A     79  68  67 SE10        N/A
WYNDMERE         N/A     82  72  69 SE10        N/A
 ***** THE ABOVE OBSERVATIONS ARE NON NWS ARE NOT QUALITY
       CONTROLLED AND MAY MIS-REPORT RAIN FOR SNOW...
$$

  *****  WEATHER ACROSS NORTHERN MINNESOTA  *****

CITY           SKY/WX    TMP DP  RH WIND       PRES   REMARKS
FLAG ISLAND    CLOUDY    72  64  78 E6        29.82F
WARROAD        TSTM      68  64  88 N7        29.82F
ROSEAU         TSTM      66  61  82 N9        29.80F
HALLOCK        CLOUDY    72  66  83 E18G26    29.70R
THF RVR FALLS  CLOUDY    68  65  90 E10       29.74F
HALSTAD        NOT AVBL
FOSSTON        CLOUDY    72  70  94 SE9G21    29.75F
BAUDETTE       CLOUDY    76  64  66 SE10      29.81F
WASKISH        CLOUDY    81  66  61 SE10G18   29.80F
CROOKSTON      CLOUDY    68  68 100 E14       29.71F
$$
  *****  WEATHER ACROSS CENTRAL AND WEST MINNESOTA  *****

CITY           SKY/WX    TMP DP  RH WIND       PRES   REMARKS
BEMIDJI        CLOUDY    73  68  83 S7        29.84S
PARK RAPIDS    LGT RAIN  73  70  90 S10       29.83F
WADENA         CLOUDY    75  68  78 SE12      29.82F
DETROIT LAKES  CLOUDY    77  68  73 SE15G22   29.78F
MOORHEAD       CLOUDY    81  70  69 SE13G22   29.74R
FERGUS FALLS   CLOUDY    79  68  69 S13       29.77F
ELBOW LAKE     FAIR      78  71  78 E8        29.80F
MORRIS MN      CLOUDY    81  72  74 SE15      29.78F
STAPLES        DRIZZLE   73  68  83 SE7       29.83F
WHEATON        DRIZZLE   81  73  78 SE8       29.78F
$$
  *****  WEATHER ELSEWHERE ACROSS MINNESOTA  *****

CITY           SKY/WX    TMP DP  RH WIND       PRES   REMARKS
DULUTH         CLOUDY    73  62  68 SE13      29.90F
INTRNTL FALLS  CLOUDY    78  64  61 SE13      29.85F
ELY            CLOUDY    72  57  60 E9        29.90F
CLOQUET        DRIZZLE   68  59  73 E7        29.90R
BRAINERD       LGT RAIN  71  69  93 SW12      29.85F
HIBBING        CLOUDY    74  62  66 SE12      29.85F
ALEXANDRIA     CLOUDY    75  68  78 SE16G28   29.83F
SAINT CLOUD    LGT RAIN  70  70 100 SE8       29.87F
MINNEAPOLIS    CLOUDY    75  68  78 SE10      29.85F
$$

  *****  WEATHER ACROSS SOUTH DAKOTA  *****

CITY           SKY/WX    TMP DP  RH WIND       PRES   REMARKS
SIOUX FALLS    MOSUNNY   90  73  57 S12       29.77F HX  98
BROOKINGS      MOSUNNY   87  74  64 S13G22    29.77  HX  95
WATERTOWN      CLOUDY    88  73  61 S9        29.78F HX  95
HURON          SUNNY     92  70  48 SW12      29.72S HX  97
SISSETON         N/A     75  73  93 N13       29.77S
ABERDEEN       PTSUNNY   86  73  65 S5        29.73F HX  93
MITCHELL       SUNNY     93  70  46 SW9G21    29.74R HX  99
PIERRE         SUNNY     93  66  40 NW23G33   29.75R HX  96
MOBRIDGE       MOSUNNY   85  69  58 NW14G24   29.77R
RAPID CITY     SUNNY     88  43  20 N25G37    29.93F
$$

  *****  SOME WEATHER IN NEARBY STATES *****

CITY           SKY/WX    TMP DP  RH WIND       PRES   REMARKS
GLASGOW MT     SUNNY     79  50  36 W25G33    29.89R
GREAT FALLS MT PTSUNNY   76  39  26 W9        30.07F
CHEYENNE WY    SUNNY     93  37  14 W13       30.13F
SCOTTSBLUFF NE SUNNY     96  49  20 NW9       29.98F HX  93
OMAHA NE       PTSUNNY   90  72  55 S16       29.81F HX  97
DES MOINES IA  CLOUDY    89  79  72 S8        29.84F HX 104
DAVENPORT IA   CLOUDY    88  79  74 SE10      29.91F HX 103
CHICAGO IL     CLOUDY    90  73  57 SW9       29.95F HX  98
EAU CLAIRE WI  LGT RAIN  73  71  93 SE15      29.88F
LA CROSSE WI   TSTM      72  71  97 S6        29.96R FOG
$$

  *****  SOME NATIONAL WEATHER *****

CITY           SKY/WX    TMP DP  RH WIND       PRES   REMARKS
LA GUARDIA NY  MOSUNNY   95  56  26 NW14G24   29.81S HX  93
RALEIGH NC     MOSUNNY   94  73  50 SE10      29.96F HX 103
ATLANTA GA     CLOUDY    90  69  50 SW8       30.02S HX  94
NEW ORLEANS LA PTSUNNY   92  78  63 S13       29.97F HX 107
OKLAHOMA CITY  MOSUNNY  100  66  32 S12G22    29.93F HX 104
ALBUQUERQUE NM MOSUNNY   96  44  16 MISG      30.11F HX  92
SALT LAKE CITY MOSUNNY   92  30  11 N10       30.10F
LOS ANGELES CA PTSUNNY   83  64  52 W9        29.81S
BOISE ID       SUNNY     79  34  19 NW10      30.14F
SEATTLE WA     PTSUNNY   66  54  65 VRB3      30.28S
$$

*** WEATHER ACROSS MANITOBA...SASKATCHEWAN AND ONTARIO ***
                ***ONTARIO***

CITY           SKY/WX    TMP DP  RH WIND       PRES   REMARKS
GERALDTON      PTSUNNY   75  54  46 SE7       30.01R
THUNDER BAY    PTSUNNY   72  61  68 E10       29.98F
SIOUX LOOKOUT  LGT RAIN  70  66  88 E3        29.96R
TORONTO        MOSUNNY   93  54  26 NW14G22   29.91S HX  91
BIG TROUT LK   SUNNY     72  52  49 SE8       29.92F
PICKLE LAKE    CLOUDY    77  55  47 SW6       29.95R
DRYDEN         PTSUNNY   73  66  78 NE8       29.91F
KENORA         LGT RAIN  68  63  83 E12       29.87F
$$
                *** MANITOBA***

CITY           SKY/WX    TMP DP  RH WIND       PRES   REMARKS
BRANDON        LGT RAIN  73  66  78 W7        29.71F
DAUPHIN        MOSUNNY   73  68  83 NE3       29.67F
ISLAND LAKE    LGT RAIN  72  59  64 SE5       29.83
PILOT MOUND      N/A     75  66  73 S6          N/A
THE PAS        LGT RAIN  70  59  68 E9        29.69R
THOMPSON       LGT RAIN  66  61  82 S10       29.76S
WINNIPEG       PTSUNNY   72  64  78 E13G20    29.73F
LYNN LAKE      LGT RAIN  64  59  82 MISG      29.71S
CHURCHILL      LGT RAIN  61  55  82 S13G20    29.69F
GILLAM         PTSUNNY   73  54  49 S14G24    29.77F
$$
                ***SASKATCHEWAN***

CITY           SKY/WX    TMP DP  RH WIND       PRES   REMARKS
ESTEVAN        MOSUNNY   79  54  41 W18G25    29.75F
KINDERSLEY     MOSUNNY   72  54  53 NW15G23   29.90S
LLOYDMINSTER   PTSUNNY   68  52  56 NW14G22   29.89R
PRINCE ALBERT  PTSUNNY   72  61  68 VRB6      29.72F
REGINA         PTSUNNY   70  59  68 W23G32    29.74R
YORKTON        PTSUNNY   73  63  68 SW20G26   29.63S   C1F1C2F2C3F3C4F4C5F5C6F6C7F7C8F8C9F9CaFaCbFbCcFcCdFdCe!



USA.gov is the U.S. government's official web portal to all federal, state and local government web resources and services.